Location: North Fort Myers
(26.6673°N, 81.8801°W)
Time: 13:40:24
(UTC+00:00)

Envisat - Pass Details

Date: 14 August 2022
Orbit: 764 x 765 km, 98.2° (Epoch: 26 September)

Event Time Altitude Azimuth Distance (km) Brightness Sun altitude
Rises 08:31:15 0° 40° (NE) 3,228 7.4 -30.3°
Reaches altitude 10° 08:34:58 10° 68° (ENE) 2,298 6.3 -29.6°
Maximum altitude 08:37:10 13° 94° (E) 2,104 5.8 -29.2°
Drops below altitude 10° 08:39:22 10° 121° (ESE) 2,292 5.7 -28.8°
Enters shadow 08:43:01 - 148° (SSE) 3,205 6.2 -28.2°
